Content
SEND FEEDBACK

Daily
Averages
Monthly
Summary
Mexico

CANCUN, QUINTANA ROO


Home > North America > Mexico > Quintana Roo
Elevation: 9 meters     Latitude: 21 09N     Longitude: 086 49W

WEATHER
 
SELECT A DAY
Number of Records: 163,905;   Date Range: 1/1/95 - 8/10/14
 
SHARE

PRINT THIS DATA

[ ← Previous Day ]
WEATHER ALMANAC - 6 MAY, 2013
[ Next Day → ]
[ °F ]   °C
Weather ElementAverageHighLow
Temperature23.4 °C27 °C (9:44 am)19 °C (3:46 am)
Dewpoint18.2 °C19 °C (8:43 am)18 °C (1:44 am)
Humidity73.7 %94 % (3:46 am)58 % (9:44 am)
Barometer1016.6 hPa1017.9 hPa (8:43 am)1014.9 hPa (3:46 am)
Wind Speed6.4 km/h18.5 km/h (2:49 pm)
Weather ElementAverage
Visibility11.3 km
Wind DirectionESE (123.5 °)

Weather ElementTotal
Precipitation---
Cooling Degree Days4.7 (Base 18.3)
Growing Degree Days13 (Base 10)
Averaged from 23 records on 6 May, 2013
WEATHER CONDITIONS BREAKOUT
WIND DIRECTION BREAKOUT
WEATHER BY HOUR - 6 MAY, 2013
[ °F ]   °C
Local TimeTemperatureDewpointHumidityBarometerVisibilityWind DirectionWind SpeedGust SpeedPrecipitationEventsConditions
1:44 AM21 °C18 °C83 %1015.9 hPa11.3 kmCalmMostly Cloudy
2:43 AM20 °C18 °C88 %1015.6 hPa11.3 kmCalmMostly Cloudy
3:46 AM19 °C18 °C94 %1014.9 hPa11.3 kmCalmScattered Clouds
4:45 AM19 °C18 °C94 %1015.9 hPa11.3 kmNW (310°)9.3 km/hPartly Cloudy
5:44 AM19 °C18 °C94 %1016.3 hPa11.3 kmNW (310°)9.3 km/hScattered Clouds
6:43 AM20 °C18 °C88 %1015.6 hPa11.3 kmNNW (340°)9.3 km/hMostly Cloudy
7:41 AM21 °C18 °C83 %1017.6 hPa11.3 kmNW (320°)7.4 km/hMostly Cloudy
8:43 AM25 °C19 °C69 %1017.9 hPa11.3 kmNNW (340°)7.4 km/hScattered Clouds
9:44 AM27 °C18 °C58 %1017.6 hPa11.3 kmENE (70°)5.6 km/hMostly Cloudy
10:41 AM27 °C18 °C58 %1017.9 hPa11.3 kmNorth (360°)9.3 km/hMostly Cloudy
11:44 AM27 °C19 °C61 %1017.9 hPa11.3 kmNNE (20°)11.1 km/hMostly Cloudy
12:43 PM27 °C19 °C61 %1017.3 hPa11.3 kmENE (70°)13 km/hMostly Cloudy
1:40 PM27 °C19 °C61 %1016.6 hPa11.3 kmNE (40°)11.1 km/hMostly Cloudy
2:49 PM27 °C19 °C61 %1015.9 hPa11.3 kmENE (60°)18.5 km/hOvercast
3:40 PM26 °C18 °C61 %1015.6 hPa11.3 kmESE (110°)7.4 km/hMostly Cloudy
4:41 PM26 °C18 °C61 %1015.2 hPa11.3 kmEast (80°)11.1 km/hMostly Cloudy
5:41 PM25 °C18 °C65 %1015.2 hPa11.3 kmNE (50°)7.4 km/hMostly Cloudy
6:40 PM25 °C18 °C65 %1015.9 hPa11.3 kmNorth (360°)9.3 km/hMostly Cloudy
7:50 PM24 °C18 °C69 %1016.3 hPa11.3 kmCalmMostly Cloudy
8:43 PM23 °C18 °C73 %1016.6 hPa11.3 kmCalmMostly Cloudy
9:49 PM22 °C18 °C78 %1016.9 hPa11.3 kmCalmMostly Cloudy
10:43 PM21 °C18 °C83 %1017.3 hPa11.3 kmCalmMostly Cloudy
11:52 PM20 °C18 °C88 %1017.3 hPa11.3 kmCalmScattered Clouds
Hourly data recorded from MMUN, located 0 kilometers away from Cancun, Quintana Roo







STORIES FROM OUR PARTNERS